Location: Shannon
(40.5500°S, 175.4167°E)
Time: 21:13:42
(UTC+00:00)

Cosmos 2218 Rocket - Pass Details

Date: 17 November 2025
Orbit: 954 x 1006 km, 82.9° (Epoch: 06 December)

Event Time Altitude Azimuth Distance (km) Brightness Sun altitude
Exits shadow 14:25:57 40° 310° (NW) 1,430 4.4 -21.7°
Maximum altitude 14:27:54 55° 259° (W) 1,199 4.3 -21.5°
Drops below altitude 10° 14:34:13 10° 181° (S) 2,805 7.1 -20.8°
Sets 14:36:52 0° 177° (S) 3,766 8.0 -20.5°
